Stündliche Wetter Dzierzecin

Heute, 14 Juni, Montag

Zeit Temperatur Niederschläge Wind Luftdruck Luftfeuchtigkeit
00:00 +10°C° 0 mm 5 m/S 760 mmHg 90%
01:00 +11°C° 0 mm 4 m/S 761 mmHg 91%
02:00 +11°C° 0 mm 4 m/S 760 mmHg 92%
03:00 +11°C° 0 mm 4 m/S 760 mmHg 92%
04:00 +11°C° 0 mm 4 m/S 760 mmHg 92%
05:00 +12°C° 0 mm 4 m/S 760 mmHg 86%
06:00 +14°C° 0 mm 4 m/S 760 mmHg 79%
07:00 +15°C° 0 mm 4 m/S 760 mmHg 73%
08:00 +17°C° 0 mm 4 m/S 760 mmHg 70%
09:00 +18°C° 0 mm 4 m/S 760 mmHg 67%
10:00 +19°C° 0 mm 4 m/S 760 mmHg 65%
11:00 +19°C° 0 mm 4 m/S 760 mmHg 64%
12:00 +19°C° 0 mm 4 m/S 760 mmHg 64%
13:00 +20°C° 0 mm 4 m/S 760 mmHg 63%
14:00 +20°C° 0 mm 4 m/S 759 mmHg 63%
15:00 +20°C° 0 mm 4 m/S 759 mmHg 63%
16:00 +20°C° 0 mm 3 m/S 759 mmHg 62%
17:00 +19°C° 0 mm 3 m/S 758 mmHg 67%
18:00 +19°C° 0 mm 2 m/S 758 mmHg 71%
19:00 +18°C° 0 mm 2 m/S 757 mmHg 75%
20:00 +17°C° 0 mm 2 m/S 757 mmHg 77%
21:00 +17°C° 0 mm 3 m/S 757 mmHg 79%
22:00 +16°C° 0 mm 3 m/S 757 mmHg 81%
23:00 +15°C° 0 mm 4 m/S 757 mmHg 82%

Morgen, 15 Juni, Dienstag

Zeit Temperatur Niederschläge Wind Luftdruck Luftfeuchtigkeit
00:00 +15°C° 0 mm 4 m/S 756 mmHg 83%
01:00 +15°C° 0 mm 4 m/S 756 mmHg 84%
02:00 +15°C° 0 mm 4 m/S 756 mmHg 85%
03:00 +15°C° 0 mm 4 m/S 756 mmHg 85%
04:00 +15°C° 0 mm 4 m/S 756 mmHg 86%
05:00 +15°C° 0 mm 4 m/S 757 mmHg 86%
06:00 +17°C° 0 mm 4 m/S 757 mmHg 85%
07:00 +17°C° 0 mm 4 m/S 757 mmHg 85%
08:00 +17°C° 0 mm 4 m/S 757 mmHg 83%
09:00 +15°C° 0 mm 4 m/S 758 mmHg 81%
10:00 +15°C° 0 mm 4 m/S 758 mmHg 79%
11:00 +17°C° 0 mm 4 m/S 758 mmHg 71%
12:00 +17°C° 0 mm 4 m/S 758 mmHg 63%
13:00 +18°C° 0 mm 4 m/S 758 mmHg 55%
14:00 +17°C° 0 mm 5 m/S 758 mmHg 56%
15:00 +17°C° 0 mm 5 m/S 758 mmHg 57%
16:00 +16°C° 0 mm 5 m/S 758 mmHg 57%
17:00 +16°C° 0 mm 5 m/S 758 mmHg 63%
18:00 +15°C° 0 mm 5 m/S 758 mmHg 69%
19:00 +14°C° 0 mm 5 m/S 758 mmHg 75%
20:00 +13°C° 0 mm 4 m/S 759 mmHg 80%
21:00 +12°C° 0 mm 4 m/S 759 mmHg 84%
22:00 +11°C° 0 mm 3 m/S 759 mmHg 89%
23:00 +11°C° 0 mm 3 m/S 759 mmHg 90%

übermorgen, 16 Juni, Mittwoch

Zeit Temperatur Niederschläge Wind Luftdruck Luftfeuchtigkeit
00:00 +11°C° 0 mm 3 m/S 759 mmHg 90%
01:00 +10°C° 0 mm 2 m/S 759 mmHg 91%
02:00 +10°C° 0 mm 2 m/S 759 mmHg 91%
03:00 +10°C° 0 mm 2 m/S 759 mmHg 91%
04:00 +10°C° 0 mm 2 m/S 760 mmHg 92%
05:00 +13°C° 0 mm 1 m/S 760 mmHg 85%
06:00 +14°C° 0 mm 1 m/S 760 mmHg 79%
07:00 +16°C° 0 mm 1 m/S 760 mmHg 73%
08:00 +18°C° 0 mm 1 m/S 760 mmHg 68%
09:00 +19°C° 0 mm 1 m/S 760 mmHg 62%
10:00 +20°C° 0 mm 1 m/S 760 mmHg 57%
11:00 +20°C° 0 mm 2 m/S 760 mmHg 55%
12:00 +20°C° 0 mm 2 m/S 760 mmHg 54%
13:00 +21°C° 0 mm 2 m/S 760 mmHg 52%
14:00 +21°C° 0 mm 3 m/S 760 mmHg 53%
15:00 +21°C° 0 mm 3 m/S 760 mmHg 54%
16:00 +20°C° 0 mm 4 m/S 759 mmHg 56%
17:00 +19°C° 0 mm 4 m/S 759 mmHg 61%
18:00 +18°C° 0 mm 4 m/S 759 mmHg 66%
19:00 +18°C° 0 mm 4 m/S 759 mmHg 71%
20:00 +15°C° 0 mm 4 m/S 759 mmHg 76%
21:00 +14°C° 0 mm 4 m/S 760 mmHg 80%
22:00 +13°C° 0 mm 3 m/S 760 mmHg 84%
23:00 +13°C° 0 mm 4 m/S 760 mmHg 82%

17 Juni, Donnerstag

Zeit Temperatur Niederschläge Wind Luftdruck Luftfeuchtigkeit
00:00 +13°C° 0 mm 4 m/S 760 mmHg 79%
01:00 +13°C° 0 mm 4 m/S 760 mmHg 77%
02:00 +12°C° 0 mm 4 m/S 760 mmHg 78%
03:00 +12°C° 0 mm 4 m/S 760 mmHg 79%
04:00 +12°C° 0 mm 4 m/S 760 mmHg 80%
05:00 +14°C° 0 mm 4 m/S 760 mmHg 74%
06:00 +17°C° 0 mm 4 m/S 760 mmHg 68%
07:00 +19°C° 0 mm 4 m/S 760 mmHg 61%
08:00 +20°C° 0 mm 4 m/S 760 mmHg 55%
09:00 +22°C° 0 mm 3 m/S 760 mmHg 48%
10:00 +24°C° 0 mm 3 m/S 760 mmHg 42%
11:00 +25°C° 0 mm 3 m/S 760 mmHg 40%
12:00 +26°C° 0 mm 4 m/S 759 mmHg 38%
13:00 +27°C° 0 mm 4 m/S 759 mmHg 36%
14:00 +27°C° 0 mm 4 m/S 759 mmHg 38%
15:00 +27°C° 0 mm 4 m/S 759 mmHg 40%
16:00 +27°C° 0 mm 4 m/S 758 mmHg 42%
17:00 +26°C° 0 mm 4 m/S 758 mmHg 48%
18:00 +23°C° 0 mm 4 m/S 758 mmHg 55%
19:00 +22°C° 0 mm 3 m/S 758 mmHg 61%
20:00 +20°C° 0 mm 4 m/S 759 mmHg 65%
21:00 +19°C° 0 mm 4 m/S 759 mmHg 68%
22:00 +17°C° 0 mm 4 m/S 759 mmHg 72%
23:00 +15°C° 0 mm 4 m/S 759 mmHg 76%

18 Juni, Freitag

Zeit Temperatur Niederschläge Wind Luftdruck Luftfeuchtigkeit
00:00 +15°C° 0 mm 4 m/S 759 mmHg 79%
01:00 +14°C° 0 mm 4 m/S 758 mmHg 83%
02:00 +14°C° 0 mm 4 m/S 758 mmHg 84%
03:00 +14°C° 0 mm 4 m/S 758 mmHg 86%
04:00 +14°C° 0 mm 4 m/S 758 mmHg 88%
05:00 +17°C° 0 mm 4 m/S 758 mmHg 81%
06:00 +19°C° 0 mm 5 m/S 758 mmHg 74%
07:00 +21°C° 0 mm 5 m/S 758 mmHg 67%
08:00 +23°C° 0 mm 5 m/S 758 mmHg 61%
09:00 +25°C° 0 mm 5 m/S 758 mmHg 55%
10:00 +27°C° 0 mm 5 m/S 758 mmHg 49%
11:00 +28°C° 0 mm 4 m/S 757 mmHg 47%
12:00 +29°C° 0 mm 4 m/S 757 mmHg 45%
13:00 +30°C° 0 mm 4 m/S 757 mmHg 43%
14:00 +30°C° 0 mm 4 m/S 757 mmHg 44%
15:00 +30°C° 0 mm 4 m/S 757 mmHg 46%
16:00 +30°C° 0 mm 4 m/S 757 mmHg 47%
17:00 +29°C° 0 mm 4 m/S 757 mmHg 52%
18:00 +28°C° 0 mm 3 m/S 757 mmHg 58%
19:00 +27°C° 0 mm 3 m/S 757 mmHg 63%
20:00 +25°C° 0 mm 4 m/S 757 mmHg 68%
21:00 +23°C° 0 mm 4 m/S 757 mmHg 72%
22:00 +22°C° 0 mm 4 m/S 758 mmHg 77%
23:00 +22°C° 0 mm 4 m/S 758 mmHg 78%

19 Juni, Samstag

Zeit Temperatur Niederschläge Wind Luftdruck Luftfeuchtigkeit
00:00 +21°C° 0 mm 4 m/S 758 mmHg 79%
01:00 +21°C° 0 mm 4 m/S 758 mmHg 81%
02:00 +20°C° 0 mm 4 m/S 758 mmHg 82%
03:00 +20°C° 0 mm 4 m/S 758 mmHg 83%
04:00 +19°C° 0 mm 4 m/S 758 mmHg 85%
05:00 +21°C° 0 mm 4 m/S 758 mmHg 81%
06:00 +22°C° 0 mm 4 m/S 758 mmHg 76%
07:00 +25°C° 0 mm 4 m/S 758 mmHg 72%
08:00 +26°C° 0 mm 4 m/S 758 mmHg 66%
09:00 +28°C° 0 mm 4 m/S 758 mmHg 60%
10:00 +29°C° 0 mm 4 m/S 758 mmHg 54%
11:00 +30°C° 0 mm 4 m/S 758 mmHg 51%
12:00 +30°C° 0 mm 4 m/S 758 mmHg 48%
13:00 +32°C° 0 mm 4 m/S 758 mmHg 46%
14:00 +32°C° 0 mm 4 m/S 757 mmHg 48%
15:00 +30°C° 0 mm 4 m/S 757 mmHg 50%
16:00 +30°C° 0 mm 4 m/S 757 mmHg 53%
17:00 +29°C° 0.1 mm 4 m/S 757 mmHg 54%
18:00 +28°C° 0.1 mm 4 m/S 757 mmHg 56%
19:00 +27°C° 0.1 mm 4 m/S 757 mmHg 58%
20:00 +26°C° 0 mm 4 m/S 757 mmHg 63%
21:00 +23°C° 0 mm 4 m/S 758 mmHg 69%
22:00 +22°C° 0 mm 4 m/S 758 mmHg 75%
23:00 +21°C° 0 mm 4 m/S 758 mmHg 79%
Mehr zeigen

Wir brauchen deine Erlaubnis

Meteoprog und unser Service Anbieter werden persönliche Daten aufbewahren, so wie Cookies, Geräte Bezeichnung oder ähnliche Technologien von deinem Gerät und Prozess, so wie Persönliche Daten Inhalte und Werbungen, genauso wie social Media und den Verkehr zu analysieren.

  • Aufbewahrung und/oder Zugang zu deiner Geräte Informationen.

    Cookies, Geräte Bezeichnung oder andere Informationen, können aufbewahrt oder Zugang zu deinem Gerät erhalten, für den Grund, der oben angegeben wird.

  • Personalisierte Werbung und Inhalte, Messungen, Einblick in das Publikum und Produkt Entwicklung.

    Werbungen und Inhalte können personalisiert werden, basierend auf ein Profil. Mehr Daten können besser personalisierte Werbungen und Inhalte hinzufügen. Werbung und Inhalte können gezeigt und gemessen werden. Einblicke über das Publikum, welche die Werbung gesehen haben und den Inhalt, können abgeleitet werden. So wie Daten können genutzt werden, um es zu verbessern oder die Benutzer Erfahrung zu verbessern das System und die Software.

Wenn du “Ich stimme zu” klickst, erlaubst du uns, die Cookies zu benutzen die Geräte Bezeichnung, den Web oder ähnliche Technologien zu benutzen. Deine Settings, können in deinem Gerät bei deinem Browser geändert werden.

Für den bestimmten Zweck, berechtigten Interessen beruhen darauf, mehr als auf den Inhalt. Du kannst mehr darüber in unseren Privaten und Cookie Politik lesen.